Regional Weather Roundup
Issued by NWS Jackson, KY

Home | Current Version | Previous Version | Graphics & Text | Print | Product List | Glossary On
Versions: 1 2 3 4 5 6 7 8 9 10 11 12 13 14 15 16 17 18 19 20 21 22 23 24 25 26 27 28 29 30 31 32 33 34 35 36 37 38 39 40 41 42 43 44 45 46 47 48 49 50
000
ASUS43 KJKL 061010
RWRJKL

EAST KENTUCKY HOURLY WEATHER ROUNDUP
NATIONAL WEATHER SERVICE JACKSON KY
600 AM EDT WED MAY 06 2015

NOTE: "FAIR" INDICATES FEW OR NO CLOUDS BELOW 12,000 FEET WITH
NO SIGNIFICANT WEATHER AND/OR OBSTRUCTIONS TO VISIBILITY.

* THESE REPORTS ARE NOT UNDER NWS QUALITY CONTROL AND MAY NOT
  REPORT WEATHER SUCH AS PRECIPITATION AND FOG.

KYZ079-080-083-085-087-088-110-112-115-119-120-061100
...EASTERN KENTUCKY...

CITY           SKY/WX    TMP DP  RH WIND       PRES   REMARKS
JACKSON        CLEAR     62  54  74 CALM      30.23S
LONDON         PTCLDY    56  51  84 CALM      30.22S
SOMERSET*      PTCLDY    54  54 100 CALM      30.23R
MONTICELLO*    PTCLDY    55  55 100 CALM      30.24S
MIDDLESBORO*   CLOUDY    56  55  96 CALM      30.25S
HARLAN APT*    CLOUDY    55  55 100 CALM      30.25S
HAZARD APT*    MOSUNNY   54  54 100 SE6       30.24R FOG
BLACK MTN*       N/A     61  50  67 CALM        N/A
PIKEVILLE APT* CLEAR     63  55  77 SE5       30.23S
BIG SANDY*     SUNNY     59  56  90 CALM      30.23S
MOREHEAD APT*  SUNNY     57  54  88 CALM      30.23S
$$

KYZ035-036-041-042-044-050-067-078-099-061100
...CENTRAL KENTUCKY...

CITY           SKY/WX    TMP DP  RH WIND       PRES   REMARKS
MT STERLING*   CLEAR     55  54  94 CALM      30.22F
FLEMING/MASON* CLEAR     61  55  82 S5        30.22S
DANVILLE*      CLEAR     55  52  88 CALM      30.22S
RICHMOND*      CLEAR     55  52  88 SE5       30.20F
LEXINGTON      CLEAR     59  54  83 CALM      30.20F
FRANKFORT      CLEAR     54  52  93 CALM      30.19S
$$

KYZ091>093-OHZ055-061-077-WVZ005-015-034-035-042-061100
...SOUTHERN OHIO/WEST VIRGINIA...

CITY           SKY/WX    TMP DP  RH WIND       PRES   REMARKS
COVINGTON      PTCLDY    57  53  86 CALM      30.20S
COLUMBUS       MOCLDY    59  55  87 CALM      30.20S
DAYTON         PTCLDY    57  55  93 CALM      30.21S FOG
WILMINGTON     CLEAR     58  52  80 CALM      30.21R
HUNTINGTON     PTCLDY    56  55  97 E3        30.20S
CHARLESTON     MOCLDY    56  54  93 CALM      30.22R
PINEVILLE*     MOCLDY    55  55 100 MISG      30.31S
BECKLEY        CLOUDY    59  50  72 CALM      30.27S
BLUEFIELD      CLOUDY    63  49  60 W6        30.29S
$$

VAZ002-007-008-TNZ017-027-036-066-071-061100
...SOUTHWEST VIRGINIA/EAST TENNESSEE...

CITY           SKY/WX    TMP DP  RH WIND       PRES   REMARKS
WISE*          CLOUDY    59  48  67 SW3       30.29F
JONESVILLE*    MOSUNNY   55  55 100 CALM      30.26S
ABINGDON*      CLEAR     58  55  89 CALM      30.27S
BRISTOL        PTCLDY    56  54  93 CALM      30.26R
KNOXVILLE      PTCLDY    60  56  86 CALM      30.22S
OAK RIDGE      PTCLDY    61  57  87 CALM      30.23S
CROSSVILLE     CLOUDY    64  54  69 CALM      30.25S
NASHVILLE      PTCLDY    62  57  83 CALM      30.18F
$$

...KEY TO REMARKS...
VSB - VISIBILITY IN MILES
WCI - WIND CHILL INDEX
HX  - HEAT INDEX

$$


USA.gov is the U.S. government's official web portal to all federal, state and local government web resources and services.